EW2108 Weather Reports


Display with metric or nautical units.
time (UTC)temp
F
wind
direction
speed
MPH
gust
MPH
rain 1hr
in
rain 24hr
in
rain mn
in
humidity
%
barometer
mb
20260509090045 61 134 1.0 2.0 0.00 0.00 0.00 75 1025.1
20260509084542 61 134 0.0 2.0 0.00 0.00 0.00 74 1025.0
20260509083042 62 134 0.0 1.0 0.00 0.00 0.00 74 1024.9
20260509081546 62 134 1.0 2.0 0.00 0.00 0.00 73 1024.7
20260509080042 62 134 0.0 1.0 0.00 0.00 0.00 73 1024.5
20260509074539 63 134 0.0 2.0 0.00 0.00 0.00 73 1024.3
20260509073039 64 134 0.0 2.0 0.00 0.00 0.00 71 1024.1
20260509071543 64 134 0.0 5.0 0.00 0.00 0.00 70 1024.0
20260509070106 65 134 1.0 5.0 0.00 0.00 0.00 69 1023.8
20260509064535 66 134 3.0 10.0 0.00 0.00 0.00 69 1023.7
20260509063038 66 138 5.0 10.0 0.00 0.00 0.00 67 1023.6
20260509061545 67 138 4.0 9.0 0.00 0.00 0.00 63 1023.5
20260509060133 68 131 5.0 10.0 0.00 0.00 0.00 65 1023.3
20260509054531 68 131 7.0 12.0 0.00 0.00 0.00 63 1023.2
20260509053032 69 134 7.0 12.0 0.00 0.00 0.00 63 1023.1
20260509051533 69 132 5.0 11.0 0.00 0.00 0.00 63 1023.0
20260509050046 69 136 4.0 12.0 0.00 0.00 0.00 61 1023.0
20260509044541 69 142 5.0 10.0 0.00 0.00 0.00 61 1023.0
20260509043028 69 136 8.0 12.0 0.00 0.00 0.00 60 1022.9
20260509041528 69 130 6.0 12.0 0.00 0.00 0.00 61 1022.9
20260509040027 69 134 7.0 12.0 0.00 0.00 0.00 61 1023.0
20260509034527 69 132 7.0 11.0 0.00 0.00 0.00 61 1023.0
20260509033156 69 142 9.0 13.0 0.00 0.00 0.00 60 1023.0
20260509031525 69 129 6.0 14.0 0.00 0.00 0.00 61 1023.2
20260509030030 69 131 8.0 12.0 0.00 0.00 0.00 58 1023.3
20260509024522 70 131 6.0 10.0 0.00 0.00 0.00 57 1023.4
20260509023022 70 131 5.0 9.0 0.00 0.00 0.00 53 1023.6
20260509021521 70 145 5.0 11.0 0.00 0.00 0.00 57 1023.7
20260509020021 69 128 7.0 10.0 0.00 0.00 0.00 54 1023.9
20260509014522 71 194 1.0 6.0 0.00 0.00 0.00 53 1024.0
20260509013033 70 196 2.0 7.0 0.00 0.00 0.00 54 1024.1
20260509011644 69 193 2.0 6.0 0.00 0.00 0.00 54 1024.3
20260509010010 69 189 3.0 7.0 0.00 0.00 0.00 55 1024.5
20260509004506 68 184 0.0 7.0 0.00 0.00 0.00 57 1024.6
20260509003001 67 188 3.0 7.0 0.00 0.00 0.00 58 1024.7
20260509001559 66 188 3.0 7.0 0.00 0.00 0.00 60 1024.8
20260509000057 66 225 4.0 8.0 0.00 0.00 0.00 59 1024.8
20260508234553 65 188 1.0 9.0 0.00 0.00 0.00 60 1024.7
20260508233049 64 202 3.0 9.0 0.00 0.00 0.00 61 1024.8
20260508231551 64 191 2.0 6.0 0.00 0.00 0.00 63 1024.7
20260508230053 63 225 2.0 6.0 0.00 0.00 0.00 65 1024.7
20260508224556 62 192 2.0 5.0 0.00 0.00 0.00 67 1024.7
20260508223035 60 207 1.0 5.0 0.00 0.00 0.00 68 1024.6
20260508221529 59 208 1.0 5.0 0.00 0.00 0.00 70 1024.4
20260508220026 58 208 1.0 4.0 0.00 0.00 0.00 73 1024.3
20260508214522 56 211 1.0 3.0 0.00 0.00 0.00 77 1024.2
20260508213020 55 211 0.0 2.0 0.00 0.00 0.00 81 1024.1
20260508211517 54 211 0.0 3.0 0.00 0.00 0.00 83 1023.7
20260508210045 53 211 0.0 2.0 0.00 0.00 0.00 84 1023.7
20260508204516 52 211 0.0 2.0 0.00 0.00 0.00 83 1023.4
20260508203008 52 211 0.0 0.0 0.00 0.00 0.00 84 1023.1
20260508201506 53 211 0.0 0.0 0.00 0.00 0.00 83 1023.0
20260508200002 54 211 0.0 1.0 0.00 0.00 0.00 82 1023.0
20260508194600 55 211 0.0 1.0 0.00 0.00 0.00 78 1022.9
20260508193131 55 211 0.0 3.0 0.00 0.00 0.00 75 1022.6
20260508191557 55 211 0.0 3.0 0.00 0.00 0.00 73 1022.5
20260508184622 55 211 0.0 3.0 0.00 0.00 0.00 75 1022.4
20260508183057 55 211 0.0 2.0 0.00 0.00 0.00 75 1022.3
20260508181551 55 211 0.0 1.0 0.00 0.00 0.00 73 1022.2
20260508180058 56 211 0.0 3.0 0.00 0.00 0.00 72 1022.0
20260508174603 56 212 1.0 3.0 0.00 0.00 0.00 72 1022.1
20260508173050 55 212 1.0 3.0 0.00 0.00 0.00 73 1022.1
20260508171609 55 212 1.0 3.0 0.00 0.00 0.00 73 1021.9
20260508170045 55 212 1.0 4.0 0.00 0.00 0.00 74 1022.0
20260508164542 54 212 0.0 3.0 0.00 0.00 0.00 76 1021.9
20260508163040 54 212 0.0 2.0 0.00 0.00 0.00 76 1021.9
20260508161544 54 212 0.0 2.0 0.00 0.00 0.00 76 1021.9
20260508160038 54 212 0.0 2.0 0.00 0.00 0.00 75 1021.9
20260508154532 55 212 0.0 1.0 0.00 0.00 0.00 73 1021.9
20260508153037 56 212 1.0 3.0 0.00 0.00 0.00 71 1021.8
20260508151538 56 212 1.0 3.0 0.00 0.00 0.00 71 1021.8
20260508150029 56 213 2.0 5.0 0.00 0.00 0.00 71 1021.8
20260508144524 56 213 0.0 3.0 0.00 0.00 0.00 70 1021.8
20260508143021 56 213 0.0 5.0 0.00 0.00 0.00 70 1021.8
20260508141519 56 215 0.0 2.0 0.00 0.00 0.00 69 1021.7
20260508140016 57 215 0.0 4.0 0.00 0.00 0.00 69 1021.6
20260508134517 57 215 1.0 3.0 0.00 0.00 0.00 68 1021.6
20260508133014 57 215 1.0 4.0 0.00 0.00 0.00 68 1021.8
20260508131513 57 217 2.0 5.0 0.00 0.00 0.00 67 1021.5
20260508130013 57 221 0.0 3.0 0.00 0.00 0.00 67 1021.6
20260508124521 58 221 1.0 5.0 0.00 0.00 0.00 67 1021.6
20260508123140 58 225 1.0 5.0 0.00 0.00 0.00 67 1021.7
20260508121508 58 225 0.0 4.0 0.00 0.00 0.00 67 1021.7
20260508120005 58 226 0.0 4.0 0.00 0.00 0.00 67 1021.6
20260508114503 58 235 1.0 3.0 0.00 0.00 0.00 66 1021.5
20260508113000 59 234 0.0 6.0 0.00 0.00 0.00 66 1021.3
20260508111603 59 198 1.0 4.0 0.00 0.00 0.00 65 1021.1
20260508110104 59 197 1.0 4.0 0.00 0.00 0.00 62 1021.4
20260508104559 60 207 2.0 7.0 0.00 0.00 0.00 61 1021.3
20260508103053 60 203 2.0 6.0 0.00 0.00 0.00 61 1021.1
20260508101551 60 186 0.0 3.0 0.00 0.00 0.00 62 1021.0
20260508100047 61 186 1.0 3.0 0.00 0.00 0.00 60 1020.9
20260508094543 61 176 1.0 6.0 0.00 0.00 0.00 59 1020.5
20260508093040 62 248 0.0 6.0 0.00 0.00 0.00 59 1020.3
20260508091604 62 288 2.0 9.0 0.00 0.00 0.00 57 1019.9